DW4535 Weather Reports


Display with metric or nautical units.
time (UTC)temp
F
wind
direction
speed
MPH
gust
MPH
rain 1hr
in
rain 24hr
in
rain mn
in
humidity
%
barometer
mb
20200402104531 41 297 7.0 12.0 0.01 0.18 0.03 80 1022.9
20200402103029 40 81 2.0 4.0 0.03 0.18 0.03 79 1022.8
20200402101526 40 84 1.0 3.0 0.03 0.18 0.03 79 1022.7
20200402100013 40 95 1.0 3.0 0.03 0.18 0.03 79 1022.6
20200402094525 40 95 0.0 2.0 0.02 0.17 0.02 79 1022.6
20200402093009 40 103 3.0 7.0 0.00 0.15 0.00 78 1022.4
20200402090004 40 91 2.0 4.0 0.00 0.15 0.00 78 1022.5
20200402084613 40 93 1.0 4.0 0.00 0.17 0.00 78 1022.5
20200402083152 40 94 2.0 3.0 0.00 0.17 0.00 78 1022.3
20200402081703 41 94 1.0 3.0 0.00 0.17 0.00 78 1022.2
20200402080146 41 94 1.0 3.0 0.00 0.17 0.00 78 1022.1
20200402074630 41 94 1.0 3.0 0.00 0.17 0.00 77 1022.0
20200402073203 42 94 1.0 2.0 0.00 0.17 0.00 78 1022.0
20200402071800 42 94 1.0 4.0 0.01 0.17 0.00 78 1021.8
20200402070245 42 103 1.0 3.0 0.01 0.17 0.00 77 1021.7
20200402064854 42 83 2.0 4.0 0.01 0.22 0.17 77 1021.6
20200402063107 42 82 1.0 3.0 0.01 0.22 0.17 77 1021.6
20200402061614 42 82 1.0 3.0 0.00 0.21 0.16 77 1021.5
20200402060128 42 105 3.0 5.0 0.00 0.21 0.16 76 1021.5
20200402054731 42 105 1.0 4.0 0.00 0.23 0.16 76 1021.5
20200402053247 43 75 1.0 6.0 0.00 0.23 0.16 76 1021.4
20200402051648 43 84 2.0 4.0 0.00 0.23 0.16 76 1021.5
20200402050155 43 84 2.0 4.0 0.00 0.23 0.16 76 1021.5
20200402044549 43 71 2.0 4.0 0.00 0.23 0.16 76 1021.5
20200402043045 43 70 1.0 3.0 0.00 0.23 0.16 75 1021.3
20200402041559 43 70 2.0 3.0 0.00 0.23 0.16 74 1021.2
20200402040048 43 70 1.0 3.0 0.00 0.23 0.16 74 1021.1
20200402034552 43 70 1.0 3.0 0.00 0.30 0.16 73 1021.0
20200402033105 44 70 1.0 3.0 0.00 0.30 0.16 72 1020.8
20200402031541 44 70 2.0 4.0 0.00 0.30 0.16 71 1020.7
20200402030058 45 30 1.0 3.0 0.00 0.30 0.16 69 1020.5
20200402024600 45 230 0.0 6.0 0.00 0.33 0.16 69 1020.4
20200402023048 46 300 2.0 6.0 0.00 0.33 0.16 68 1020.2
20200402021538 46 294 3.0 7.0 0.00 0.33 0.16 69 1020.1
20200402020026 46 297 2.0 6.0 0.00 0.33 0.16 70 1020.1
20200402014559 46 339 2.0 11.0 0.00 0.33 0.16 71 1020.0
20200402013123 46 271 8.0 13.0 0.00 0.33 0.16 72 1019.9
20200402011534 47 285 9.0 14.0 0.00 0.33 0.16 71 1019.8
20200402010051 46 278 10.0 14.0 0.00 0.33 0.16 72 1019.8
20200402004539 46 269 10.0 14.0 0.00 0.39 0.16 72 1019.7
20200402003043 47 306 10.0 14.0 0.00 0.39 0.16 72 1019.7
20200402001521 47 275 9.0 13.0 0.00 0.39 0.16 72 1019.6
20200402000318 46 276 8.0 12.0 0.00 0.39 0.16 71 1019.6
20200401234531 47 277 8.0 11.0 0.00 0.39 0.16 71 1019.5
20200401233010 46 278 7.0 10.0 0.00 0.39 0.16 71 1019.5
20200401231516 47 290 9.0 12.0 0.00 0.39 0.16 72 1019.3
20200401224505 46 265 9.0 13.0 0.00 0.39 0.16 71 1019.1
20200401223017 46 288 8.0 12.0 0.00 0.39 0.16 72 1019.1
20200401221504 46 285 6.0 9.0 0.01 0.39 0.16 72 1019.0
20200401220131 46 296 6.0 12.0 0.03 0.39 0.16 72 1018.9
20200401220000 46 276 6.0 12.0 0.03 0.39 0.16 73 1018.9
20200401214654 45 271 6.0 9.0 0.03 0.40 0.16 72 1018.8
20200401213212 45 269 4.0 6.0 0.03 0.40 0.16 72 1018.7
20200401211656 45 288 1.0 4.0 0.02 0.39 0.15 71 1018.5
20200401210127 46 284 2.0 7.0 0.02 0.37 0.13 70 1018.5
20200401204644 45 265 1.0 5.0 0.03 0.38 0.13 73 1018.5
20200401203205 44 317 1.0 3.0 0.03 0.38 0.13 74 1018.3
20200401201717 43 25 0.0 2.0 0.03 0.38 0.13 74 1018.3
20200401200150 44 78 1.0 5.0 0.01 0.36 0.11 73 1018.3
20200401194640 45 265 3.0 5.0 0.00 0.35 0.10 73 1018.2
20200401193120 46 255 1.0 4.0 0.01 0.35 0.10 77 1018.1
20200401191701 45 66 1.0 4.0 0.01 0.35 0.10 77 1018.1
20200401190108 43 74 2.0 5.0 0.01 0.35 0.10 76 1018.0
20200401184802 43 104 3.0 5.0 0.01 0.38 0.10 76 1018.0
20200401183121 43 118 1.0 4.0 0.00 0.37 0.09 76 1018.0
20200401181611 43 82 1.0 4.0 0.00 0.37 0.09 76 1017.9
20200401180128 43 80 0.0 4.0 0.00 0.37 0.09 76 1017.7
20200401174650 43 139 3.0 5.0 0.00 0.39 0.09 77 1017.6
20200401173128 42 62 4.0 8.0 0.00 0.39 0.09 77 1017.4
20200401171648 42 65 3.0 7.0 0.00 0.39 0.09 77 1017.2
20200401170257 41 119 3.0 7.0 0.00 0.39 0.09 78 1017.2
20200401164559 40 79 3.0 5.0 0.00 0.39 0.09 79 1017.1
20200401163049 39 64 4.0 9.0 0.00 0.39 0.09 78 1017.2
20200401161554 39 60 3.0 5.0 0.00 0.39 0.09 78 1017.1
20200401160054 39 63 4.0 7.0 0.00 0.39 0.09 78 1017.0
20200401154628 39 107 3.0 6.0 0.00 0.39 0.09 78 1017.0
20200401153119 39 109 3.0 7.0 0.00 0.39 0.09 78 1017.0
20200401151548 39 100 2.0 6.0 0.03 0.39 0.09 78 1016.9
20200401150047 39 78 3.0 6.0 0.04 0.39 0.09 78 1016.9
20200401144552 39 76 2.0 6.0 0.04 0.39 0.09 77 1016.8
20200401143053 40 100 3.0 6.0 0.04 0.39 0.09 77 1016.9
20200401141548 40 279 1.0 3.0 0.02 0.36 0.06 78 1017.0
20200401140038 40 90 2.0 5.0 0.02 0.35 0.05 78 1016.8
20200401134621 40 76 2.0 5.0 0.02 0.35 0.05 77 1016.6
20200401133034 40 98 2.0 4.0 0.02 0.35 0.05 77 1016.6
20200401131532 40 120 1.0 3.0 0.01 0.34 0.04 77 1016.7
20200401130048 40 91 1.0 3.0 0.00 0.33 0.03 77 1016.8
20200401124553 40 90 2.0 4.0 0.00 0.33 0.03 77 1016.8
20200401123139 40 87 2.0 5.0 0.00 0.33 0.03 77 1017.0
20200401121523 41 120 1.0 5.0 0.00 0.33 0.03 77 1016.9
20200401120042 40 126 1.0 4.0 0.00 0.33 0.03 78 1017.1
20200401114530 40 98 1.0 3.0 0.01 0.34 0.03 77 1017.2
20200401113022 40 98 1.0 3.0 0.01 0.34 0.03 77 1017.2
20200401111559 40 94 0.0 3.0 0.01 0.34 0.03 77 1017.4
20200401110023 40 97 1.0 3.0 0.01 0.34 0.03 77 1017.4